星链-36745(STARLINK-36745)

导读

STARLINK-36745(NORAD编号68257)是美国SpaceX公司星链(Starlink)低轨互联网星座中的一员,隶属于一代星链项目。该卫星原运行于550公里高度的近地轨道,属于SpaceX计划在2026年内降低轨道高度的4400颗星链卫星之一,降轨后轨道高度将调整至480公里。降轨旨在提升太空安全,若卫星发生故障可更快再入大气层解体,减少轨道碰撞风险与太空碎片产生,应对近地轨道日益拥挤带来的凯斯勒现象担忧,为全球提供稳定的低时延高速卫星互联网服务。

基本信息
目录编号:
68257
目录名称:
STARLINK-36745
国际标识:
2026-054AB
轨道中心:
EARTH
卫星名称:
星链-36745
卫星全名:
星链-36745(STARLINK-36745)
卫星状态:
在轨 (已飞行180 天)
发射日期:
2026-03-17 UTC
国别 :
美国 (US)
星等 :
--
该卫星已列入 空间交会检测服务 Space Conjunction Data Service (SCDS) ,当前飞行风险评估等级: 无高风险
轨道信息
数据来源 国际轨道数据
星历时间: 2026-09-13T05:50:40+0800
12小时前
查看轨道信息
半长轴: 6840.869km
偏心率: 0.0001023
轨道倾角: 53.157°
近地点辐角 98.737°
升交点赤经 137.425°
平近点角 261.375°
近地点: 462.032km
远地点: 463.432km
周期: 93.848分钟
每日圈数: 15.343905
详细信息
固有亮度:
5
最大亮度:
2.5
卫星平台:
Starlink V1.0
覆盖范围:
全球
运营商:
太空探索技术公司
运营商所在国:
美国
制造商(研发单位):
太空探索技术公司
制造商所在国:
美国
使用方式:
暂无
卫星简介
Starlink 计划是 SpaceX 推出的全球卫星互联网项目,通过发射低轨道卫星,为全球尤其是偏远地区提供高速、低延迟的互联网服务。自 2019 年起,Starlink 已部署数千颗卫星,旨在缩小全球数字鸿沟,推动互联网普及。该项目还为军事、航空等行业提供通信支持,带来广泛经济效益。
2D轨道图
3D轨道图
轨道高度分析图
轨道倾角分析图
轨道综合分析图
查看轨道综合分析图
交会数据列表
事件ID 空间交会对象 最接近时刻(TCA) 交会距离 交会风险概率(CRP) 交会风险指数(CRI) 操作
CDM_260915-032905-407306-825721
2026-09-15T
03:29:28+0000
2.035 km
极远距离
1.800223E-6 低风险 0.4
CDM_260915-030705-253506-825721
2026-09-15T
03:07:46+0000
2.537 km
极远距离
1.473921E-6 低风险 0.38
与全量物体交会距离演化趋势
与全量物体交会风险概率演化趋势